Location: Aiyekoto
(8.4333°N, 4.3667°E)
Time: 20:57:22
(UTC+00:00)

CZ-3 R/B - Visible Passes

Search period start: 25 September 2020 00:00
Search period end: 05 October 2020 00:00
Orbit: 368 x 10243 km, 28.3° (Epoch: 24 September)

Date Brightness Start Highest point End Pass type
(mag) Time Alt. Az. Time Alt. Az. Time Alt. Az.
25 Sep 3.6 03:56:35 10° SW 04:25:28 56° SSE 04:32:45 10° E visible
25 Sep 6.5 19:12:37 10° W 19:48:29 43° SSW 21:09:03 10° SE visible
25 Sep 5.8 23:40:14 10° SW 00:52:37 35° S 01:16:00 10° ESE visible
26 Sep 3.1 04:29:03 10° SW 04:54:02 70° SSE 05:00:21 10° ENE visible
26 Sep 6.6 19:43:00 10° WSW 20:25:48 39° SSW 21:42:14 10° SE visible
27 Sep 5.6 00:18:50 10° SW 01:26:01 38° S 01:45:14 10° ESE visible
27 Sep 2.6 05:01:06 10° WSW 05:22:12 90° SSE 05:27:45 10° ENE visible
27 Sep 6.5 20:14:19 10° WSW 21:05:55 36° S 22:15:05 10° SE visible
28 Sep 5.3 00:56:37 10° SW 01:58:00 42° SSE 02:14:03 10° E visible
28 Sep 5.6 16:50:03 10° W 17:06:15 57° SSW 18:14:45 10° SE visible
28 Sep 6.3 20:46:41 10° WSW 21:48:39 35° S 22:47:26 10° ESE visible
29 Sep 4.9 01:33:21 10° SW 02:28:58 47° SSE 02:42:29 10° E visible
29 Sep 5.9 17:18:23 10° W 17:37:27 50° SSW 18:50:21 10° SE visible
29 Sep 6.2 21:20:11 10° WSW 22:31:34 35° S 23:19:06 10° ESE visible
30 Sep 4.5 02:09:06 10° SW 02:59:06 54° SSE 03:10:35 10° E visible
30 Sep 6.1 17:47:08 10° W 18:09:43 45° SSW 19:26:07 10° SE visible
30 Sep 6.0 21:54:44 10° SW 23:11:53 36° S 23:50:03 10° ESE visible
01 Oct 4.0 02:44:08 10° SW 03:28:34 64° SSE 03:38:25 10° ENE visible
01 Oct 6.4 18:16:20 10° WSW 18:43:24 41° SSW 20:02:00 10° SE visible
01 Oct 5.9 22:30:03 10° SW 23:49:12 39° SSE 00:20:17 10° ESE visible
02 Oct 3.6 03:18:36 10° SW 03:57:29 76° SSE 04:06:02 10° ENE visible
02 Oct 6.6 18:46:07 10° WSW 19:18:58 37° S 20:37:45 10° SE visible
02 Oct 5.8 23:05:44 10° SW 00:24:07 42° SSE 00:49:52 10° E visible
03 Oct 3.2 03:52:41 10° WSW 04:25:56 88° NNW 04:33:27 10° ENE visible
03 Oct 6.7 19:16:33 10° WSW 19:57:08 35° S 21:12:58 10° ESE visible
03 Oct 5.6 23:41:28 10° SW 00:57:19 47° SSE 01:18:55 10° E visible
04 Oct 3.0 04:26:28 10° WSW 04:54:00 70° NNW 05:00:43 10° NE visible
04 Oct 6.5 19:47:41 10° WSW 20:38:24 35° S 21:47:17 10° ESE visible
